Theta_e
301 301 302 302 302 302 303 302 302 301 302 302 302 301 302 302 303 302 303 304 304 302 303 304 305 306 306 306 308 309 308 314 312 312 315 316 319 321 323 327 329 329 328 333 338 340 342 338 337 339 344 341 340 339
301 301 301 302 302 301 301 301 301 301 301 301 301 302 302 302 302 302 303 304 304 305 303 304 305 306 306 306 307 307 309 309 313 315 318 320 321 324 325 325 325 327 327 328 332 334 339 341 343 341 340 340 340 339
301 301 301 301 301 302 301 301 302 302 302 302 302 302 302 302 301 302 303 303 304 302 304 305 307 307 308 308 306 307 307 309 311 313 316 319 323 327 329 327 333 329 331 331 331 336 341 339 338 339 339 341 341 346
301 301 301 301 301 301 301 302 302 302 302 302 301 301 301 301 301 301 303 303 304 303 305 305 307 308 308 308 308 307 306 308 311 313 313 317 323 321 323 324 331 333 333 338 335 344 341 341 341 341 340 344 346 345
301 301 301 301 301 301 300 300 301 301 301 300 300 301 302 302 303 302 303 303 304 303 305 305 306 308 309 307 308 308 307 307 309 311 315 318 320 321 324 325 325 327 332 335 345 334 342 338 338 338 338 339 339 339
301 301 301 301 301 300 301 301 301 301 301 301 301 301 301 301 301 304 305 304 304 305 305 307 307 309 311 309 307 308 308 308 309 312 314 312 318 320 324 328 327 328 330 334 329 327 328 328 328 333 333 332 333 333
300 300 301 301 301 301 301 302 302 302 302 301 301 301 300 300 300 304 305 305 303 303 306 307 310 312 313 308 309 310 309 310 312 313 313 313 319 319 324 326 325 326 327 327 326 326 325 324 326 325 325 326 326 327
301 301 301 302 302 302 302 302 302 303 303 302 301 301 301 301 302 305 306 305 304 304 304 308 310 312 314 312 313 313 312 312 314 314 313 320 320 320 324 323 324 323 326 327 327 325 325 324 324 323 324 325 325 325
301 302 302 302 303 304 304 304 304 304 304 304 305 305 306 306 306 308 306 305 305 304 306 308 310 316 311 314 315 313 313 313 316 316 319 318 316 321 321 323 322 322 324 324 324 323 323 321 321 321 321 323 324 323
302 302 303 304 304 304 304 305 305 304 305 308 308 309 310 310 308 307 306 306 305 305 305 308 310 313 313 314 315 314 314 317 319 319 317 318 318 317 319 318 319 320 321 322 320 319 319 319 321 320 318 320 320 321
302 302 302 303 304 304 304 305 306 306 308 309 309 310 309 309 310 310 311 311 310 311 310 312 315 318 316 319 320 318 320 321 320 317 320 317 316 318 318 320 318 318 318 319 320 321 319 319 319 319 319 318 321 324
301 301 302 303 303 304 304 307 306 307 308 306 307 308 310 312 312 311 311 309 309 309 310 316 317 317 316 317 318 318 321 320 319 319 318 315 316 317 317 318 319 318 319 320 321 321 322 323 321 319 318 319 322 324
301 301 302 303 303 304 304 307 308 307 308 310 310 312 312 313 314 315 317 317 318 315 318 318 319 315 317 316 319 318 320 322 319 320 318 315 314 317 318 317 316 318 318 319 319 320 321 322 322 323 323 322 323 324
301 301 303 304 303 304 304 308 310 310 310 311 311 314 312 314 313 315 317 319 317 314 315 318 320 317 317 320 320 319 320 322 323 322 319 318 318 319 320 319 319 319 319 319 319 320 321 323 323 323 323 324 324 325
301 303 307 306 304 304 306 310 312 312 312 312 312 316 316 314 315 316 316 316 317 317 319 319 319 318 320 321 321 320 322 321 319 322 319 317 317 321 320 319 319 319 318 318 318 319 319 320 319 322 322 322 323 323
302 305 309 306 304 305 310 313 314 315 315 315 314 314 313 314 315 316 316 317 318 319 318 318 319 319 319 319 318 316 319 317 315 318 317 317 319 318 318 320 319 318 319 319 319 319 319 319 319 318 318 319 320 322
304 309 307 307 305 308 311 313 314 313 312 312 312 312 314 315 316 316 316 317 317 318 321 319 320 320 318 316 315 314 315 315 317 317 318 318 317 317 318 320 320 320 320 319 320 319 319 319 319 318 319 318 319 321
307 308 308 307 306 312 312 312 314 312 312 312 313 314 314 315 316 316 316 316 317 318 318 319 317 318 319 319 318 318 318 316 318 318 317 317 317 317 317 317 320 319 318 319 317 318 317 316 316 315 316 316 317 317
309 309 308 307 311 313 312 312 313 312 313 313 313 314 315 316 316 317 316 316 316 316 317 317 318 319 320 320 321 320 321 321 320 320 319 318 319 319 320 320 318 316 315 315 315 316 315 314 313 313 313 314 314 314
311 310 308 312 312 314 313 313 313 313 313 314 314 315 316 316 317 316 316 317 316 317 318 319 321 319 319 319 319 320 320 318 317 317 317 317 317 316 316 316 316 315 315 314 313 312 312 311 310 310 310 310 311 311
314 312 313 314 315 314 314 313 314 313 314 315 316 316 316 316 316 317 317 317 317 318 319 318 318 316 315 315 316 317 317 318 317 318 317 317 316 315 315 314 314 314 313 312 311 310 310 309 308 308 308 308 308 310
313 312 315 316 317 316 316 316 315 315 316 317 316 317 316 316 316 315 315 315 314 314 315 315 315 314 313 312 310 311 313 316 317 315 316 316 315 314 313 312 312 312 311 310 310 309 308 307 306 307 308 307 307 309
313 314 317 317 317 317 318 318 318 317 317 317 318 318 317 317 317 315 313 314 315 315 315 314 315 313 313 311 309 308 309 310 312 313 312 311 313 313 312 312 312 311 310 309 308 308 307 306 306 306 307 307 307 307
313 315 317 319 319 319 319 318 318 318 319 319 319 319 319 319 318 317 318 315 314 313 312 312 312 312 311 310 309 308 307 308 310 310 309 309 310 310 311 311 310 308 308 308 308 307 306 305 305 306 306 306 306 306
317 317 320 318 321 319 319 319 318 318 319 318 319 320 320 319 318 317 316 313 312 311 311 311 311 311 310 310 309 307 306 306 306 308 308 307 307 307 307 307 307 305 304 305 304 303 303 303 303 303 304 304 303 303
316 321 318 318 319 319 319 318 319 319 319 318 319 318 317 320 317 316 313 312 311 311 311 311 310 310 309 308 306 305 305 305 305 305 305 306 306 305 304 304 303 301 301 302 300 299 300 300 298 298 299 300 300 300
319 320 321 321 320 320 320 320 318 318 319 319 320 319 319 318 315 310 310 311 311 311 311 310 308 307 306 305 304 304 304 303 303 303 304 305 303 302 301 301 299 298 298 298 297 297 297 297 296 296 297 297 298 298
322 323 319 313 320 318 317 319 319 319 318 318 319 319 317 315 311 310 310 310 310 309 309 308 307 306 304 303 302 302 302 301 300 300 302 302 301 299 298 298 297 296 297 296 296 296 295 295 295 295 296 296 296 296
322 320 321 321 319 319 318 318 317 316 315 317 319 316 313 311 310 310 310 310 310 310 308 306 305 304 302 301 301 300 300 299 297 297 297 297 297 296 296 296 296 296 296 296 295 295 294 294 294 295 295 294 294 294
319 319 320 318 319 320 318 317 316 315 314 313 311 311 311 311 311 311 311 309 308 307 306 305 303 301 300 300 299 299 298 297 296 295 294 294 294 294 294 295 294 294 294 295 295 295 294 294 294 294 294 293 293 292
318 318 319 319 319 318 317 317 316 315 314 313 313 312 312 312 312 309 308 306 305 304 303 302 301 300 299 299 298 298 297 297 296 294 292 292 292 293 293 293 293 294 294 294 294 294 294 294 293 293 293 292 292 292
318 317 317 318 320 319 319 319 318 317 316 315 314 313 313 313 313 310 308 306 304 303 301 301 300 300 299 298 297 297 295 296 294 292 291 291 291 291 292 292 293 293 293 294 293 293 293 292 292 292 292 292 291 291
317 317 317 317 317 318 320 321 320 318 316 315 315 315 314 313 311 308 307 306 303 302 300 299 299 299 298 297 296 296 296 295 294 293 292 291 291 291 291 291 291 292 292 292 292 292 291 292 292 291 291 291 291 291
Wind_Speed
26 26 27 26 26 27 25 22 19 17 14 12 13 14 15 15 12 13 15 11 19 11 23 28 30 29 24 23 10 9 10 7 8 8 6 6 7 10 14 13 15 10 10 12 11 9 8 22 12 19 3 3 4 7
25 24 25 23 24 24 22 20 17 15 15 14 13 15 12 10 11 12 15 11 14 21 21 29 24 29 31 27 23 17 9 13 7 3 2 3 8 8 13 10 15 13 15 11 11 9 6 10 9 8 6 5 7 9
24 23 21 23 24 24 21 19 17 16 16 14 13 13 14 13 11 12 14 15 13 11 27 26 24 24 28 30 27 24 21 10 7 3 5 3 6 4 3 7 12 16 17 12 13 11 2 10 9 6 9 12 9 16
22 21 22 22 24 23 21 20 18 17 16 15 14 11 10 10 10 11 13 12 12 9 6 18 12 21 13 14 25 25 26 17 12 9 3 3 4 4 4 6 8 6 13 12 13 13 13 13 15 6 13 19 20 23
21 21 22 22 23 22 21 20 18 18 18 15 13 12 11 10 10 11 15 14 12 11 6 21 28 24 21 17 13 18 19 20 15 9 2 3 3 2 2 3 3 5 5 5 5 19 14 13 13 16 23 23 23 23
22 22 21 22 21 21 21 21 20 20 18 16 15 14 13 11 12 12 5 2 3 13 6 6 19 19 6 19 15 15 16 16 12 5 1 4 7 3 3 1 5 7 10 3 5 31 28 27 30 20 25 25 25 24
21 20 20 21 19 20 21 21 21 22 20 19 18 16 14 13 13 11 7 8 14 8 5 6 6 9 11 12 14 14 14 16 9 3 5 4 4 4 1 2 7 11 9 18 25 27 24 30 23 21 27 25 24 23
19 19 20 20 21 22 24 26 25 24 21 16 14 13 13 14 12 8 6 10 6 5 4 4 5 6 13 17 11 14 12 6 5 4 5 4 2 4 2 4 8 11 16 19 21 22 21 17 17 25 32 27 25 23
18 18 19 21 24 28 30 28 25 21 16 12 10 10 10 5 5 5 9 15 6 6 3 3 3 5 16 4 6 10 10 5 10 4 0 2 3 2 3 4 12 12 8 19 24 21 19 22 23 24 23 24 25 23
18 19 22 24 26 32 32 29 25 21 13 12 9 4 4 3 12 16 6 2 4 5 6 4 11 3 6 7 5 5 10 4 3 2 2 3 4 10 13 13 17 18 12 19 24 18 22 23 21 20 18 14 15 18
21 23 26 27 27 33 33 28 23 21 10 9 5 4 15 10 6 4 4 4 2 3 6 8 12 5 7 6 2 7 2 1 2 1 2 3 2 6 12 19 22 22 23 26 22 18 18 19 20 18 17 18 19 15
24 26 28 26 29 35 32 24 23 15 9 7 8 8 10 5 2 2 4 3 4 3 5 4 9 12 3 2 5 3 2 1 3 0 3 2 3 7 8 17 19 18 17 15 13 10 9 10 11 11 14 10 11 3
25 27 28 24 32 36 32 24 18 12 5 5 5 5 8 2 4 5 6 3 2 4 4 10 3 2 5 4 1 1 3 4 6 3 3 1 8 4 12 22 20 17 18 16 14 8 11 12 9 7 7 7 9 5
25 27 23 26 35 34 26 19 17 10 6 4 6 5 4 4 3 4 11 11 16 5 16 9 7 5 5 3 2 5 4 2 4 4 3 1 1 1 8 12 12 9 9 14 14 15 16 22 16 13 10 11 9 10
24 23 18 28 33 28 19 10 16 13 5 5 4 3 4 11 17 16 22 17 10 19 19 10 4 16 7 4 4 3 2 5 6 4 2 2 4 8 10 7 13 13 14 17 17 16 16 15 17 16 14 17 12 11
25 19 14 28 26 18 14 9 11 5 3 3 2 7 17 17 20 25 26 21 36 20 6 11 8 5 8 5 7 7 4 4 2 2 2 2 7 13 12 11 10 13 12 15 13 13 14 16 15 13 11 9 9 8
22 9 25 25 22 7 18 9 4 3 6 7 12 18 18 19 17 21 24 29 25 26 11 5 7 9 4 5 4 3 3 3 9 11 8 9 9 10 11 11 18 15 12 10 9 16 10 12 9 12 12 12 9 9
19 21 21 21 19 7 7 8 7 6 8 12 12 16 19 19 24 26 22 21 23 22 21 11 9 8 6 5 2 1 5 6 6 10 9 9 10 10 8 10 15 17 20 19 11 14 16 19 18 19 17 16 14 12
19 17 15 15 12 7 5 7 7 7 9 16 18 19 17 21 23 24 24 21 25 23 22 11 7 7 7 9 13 18 17 14 12 12 14 14 10 11 12 12 13 14 16 15 18 15 14 14 15 17 14 14 13 11
12 11 15 10 14 5 4 3 4 5 7 10 14 13 17 21 22 24 26 29 25 25 16 8 9 19 20 21 20 20 19 18 19 15 14 14 15 15 14 12 11 11 13 12 14 13 13 12 13 12 11 11 13 12
11 12 8 12 6 8 6 7 6 6 7 9 15 14 15 18 23 27 28 23 26 12 17 19 22 24 25 26 24 22 20 18 18 16 15 12 13 12 12 12 11 10 10 12 12 13 13 14 14 13 12 11 10 10
9 11 8 8 6 5 4 7 5 6 6 10 14 13 12 16 17 19 19 23 12 13 16 17 18 21 25 27 27 27 23 11 10 13 10 6 7 9 10 10 9 10 13 11 12 12 13 14 14 13 13 13 12 12
11 10 7 5 4 4 2 4 4 4 2 4 6 4 6 7 7 7 6 9 8 11 13 13 13 21 21 21 25 26 26 23 21 17 17 16 9 11 11 9 10 8 7 10 12 13 14 15 15 14 12 11 11 10
8 5 4 5 6 4 4 1 1 1 4 3 2 1 2 3 4 6 7 12 17 22 23 23 20 21 21 22 23 24 25 22 17 16 16 15 13 15 17 11 13 14 14 12 13 13 14 14 14 14 13 13 12 10
4 4 3 4 1 3 0 4 6 4 4 3 1 1 3 4 3 3 4 15 21 20 21 19 19 20 20 19 19 20 20 19 18 16 14 13 12 12 14 18 14 15 17 15 15 15 15 14 14 15 14 15 15 12
0 1 2 7 5 4 6 4 4 5 3 4 7 7 7 4 5 4 4 12 13 17 17 18 19 19 18 18 20 20 19 18 18 16 16 15 11 11 13 15 16 17 17 14 14 15 15 15 16 16 15 16 17 15
3 4 4 4 7 3 6 6 5 6 5 5 8 5 2 5 5 3 7 15 13 13 15 18 14 16 17 19 18 17 18 17 18 16 15 9 12 12 13 15 15 16 14 13 14 15 15 16 18 16 15 13 13 13
9 9 17 13 11 19 6 6 8 7 9 11 6 6 3 4 1 2 4 10 13 12 9 8 11 14 17 18 17 17 15 15 16 15 12 10 13 14 14 13 14 14 13 12 14 12 14 18 13 13 12 13 13 13
5 22 11 5 10 9 11 10 14 12 15 13 6 4 3 2 2 3 5 6 7 11 14 16 16 16 16 16 15 15 14 15 17 18 16 15 16 17 16 14 14 13 13 12 14 10 15 13 12 10 13 14 14 14
10 7 7 3 7 6 15 10 11 12 15 15 12 9 6 4 2 2 6 11 14 14 15 15 15 16 16 16 15 14 14 13 13 15 16 15 15 14 13 14 13 13 13 12 12 12 14 13 12 13 13 14 14 15
6 7 5 6 5 10 5 7 8 9 10 12 9 8 7 3 2 5 12 13 14 15 15 15 14 14 14 15 14 13 12 12 11 14 16 11 11 11 12 13 13 14 13 13 13 13 14 14 14 14 14 15 15 16
3 7 10 2 8 6 6 4 4 1 5 5 5 4 2 1 2 1 9 15 14 15 14 15 15 13 12 12 12 11 11 8 10 14 17 13 10 10 11 12 12 14 14 14 13 13 14 14 14 14 15 15 16 16
6 8 6 6 3 5 9 5 2 2 4 5 2 2 2 8 7 6 7 12 12 11 13 13 13 11 11 11 12 11 9 7 14 13 21 18 16 15 12 12 14 14 14 14 12 12 13 13 14 15 15 15 16 17
Wind_Direction
338 339 339 338 340 340 342 338 329 326 322 317 315 312 304 292 283 281 277 266 253 241 274 274 274 276 273 260 257 298 325 243 230 189 180 191 264 277 271 236 209 221 221 233 230 198 248 125 150 231 32 53 320 338
342 339 343 345 344 348 349 349 350 345 338 328 314 316 313 300 292 286 273 277 276 251 263 283 273 258 262 259 271 256 234 272 332 266 234 258 255 304 294 281 259 232 244 243 255 258 230 88 85 110 145 108 20 348
350 353 353 352 349 348 348 348 348 347 341 339 331 319 308 305 297 286 271 280 291 286 288 272 273 279 261 245 240 252 264 257 258 242 300 262 260 349 286 264 322 262 28 241 225 232 210 152 128 117 94 68 65 46
357 357 356 355 353 353 353 350 345 340 339 333 334 338 330 319 309 292 285 296 275 274 280 294 281 284 297 229 218 230 241 265 265 255 261 271 291 60 322 308 300 346 312 330 240 156 119 84 84 65 96 81 68 61
355 354 355 354 352 354 356 353 349 349 345 341 339 332 327 328 325 304 293 288 276 257 298 297 295 286 255 228 217 215 220 237 261 296 335 297 322 328 238 284 291 334 337 333 347 337 117 138 110 93 85 73 69 65
353 351 349 349 352 355 357 354 351 349 345 337 330 321 317 306 311 317 301 23 324 262 286 300 307 309 251 190 194 200 207 222 246 292 341 280 225 334 231 278 7 352 322 264 99 50 47 73 77 84 86 78 75 74
351 350 352 354 353 350 349 349 348 341 334 325 318 314 310 305 299 282 267 305 294 287 276 296 299 306 320 156 181 181 195 202 205 155 230 234 259 349 315 271 17 25 38 111 95 94 58 36 59 71 84 80 80 73
354 354 352 353 353 351 344 339 338 336 327 323 323 320 310 300 293 287 268 320 281 257 261 281 283 291 218 180 174 172 168 151 158 203 259 234 125 271 141 332 105 44 69 78 110 106 105 102 74 67 69 69 69 66
352 356 356 352 353 352 346 341 339 341 344 333 329 312 306 288 253 288 279 308 252 216 272 254 287 324 341 355 273 151 178 193 168 200 29 31 334 5 337 115 90 77 70 96 93 92 78 63 54 55 64 59 59 38
352 351 349 349 351 354 351 343 341 338 334 347 337 285 290 343 308 301 308 253 209 216 228 250 217 285 282 210 256 211 193 139 158 43 90 45 18 343 21 77 108 116 88 102 95 82 82 81 79 74 67 62 55 55
343 343 343 342 347 354 351 345 347 351 19 341 321 286 296 302 279 230 246 232 233 238 224 261 274 254 217 207 269 20 347 348 81 352 58 72 7 357 12 74 93 95 99 101 99 104 102 113 99 93 85 81 66 44
338 341 340 340 351 354 351 348 342 352 318 316 312 302 314 306 305 329 297 281 210 256 256 265 306 322 18 81 49 293 304 317 84 176 66 61 316 53 56 75 85 89 86 79 72 66 93 103 102 88 84 83 60 81
334 336 336 339 353 351 348 350 351 2 39 349 321 317 330 321 337 305 323 328 304 209 296 297 323 287 325 46 51 260 184 79 155 59 57 102 275 247 104 89 76 76 64 61 43 22 81 89 98 93 74 103 80 30
334 336 332 343 350 346 345 357 18 33 31 10 352 349 9 330 305 319 305 296 348 311 297 283 254 148 162 208 19 25 360 350 63 46 60 306 348 117 101 92 92 75 68 68 56 60 75 85 83 71 56 61 83 69
334 337 327 343 337 343 348 17 18 24 360 30 13 340 326 295 297 278 280 294 348 311 295 292 267 41 26 55 31 50 75 57 19 43 58 291 345 35 53 83 86 79 68 60 57 58 68 75 71 74 65 52 67 63
333 343 320 327 341 353 14 34 9 359 8 0 314 345 4 352 1 354 351 354 352 10 353 31 27 40 32 30 17 19 37 31 353 332 143 124 27 38 28 60 81 103 91 83 76 68 60 68 66 65 64 67 66 73
331 323 320 336 346 15 28 14 336 6 16 19 0 13 10 360 19 350 357 352 359 17 28 30 35 34 48 27 35 33 358 317 52 81 79 70 74 60 69 41 65 88 95 93 72 54 82 73 63 63 60 28 41 51
326 324 336 342 353 52 6 357 344 37 15 21 5 25 8 3 7 2 7 9 9 17 46 56 68 35 24 14 145 325 134 132 83 121 111 89 85 86 76 58 59 60 56 79 69 64 52 46 47 32 36 45 34 20
331 335 351 6 19 41 11 15 357 354 23 19 9 25 11 15 6 16 13 38 46 45 52 44 44 36 42 32 37 49 58 61 68 80 88 89 89 101 100 98 87 75 64 62 56 57 53 41 29 21 15 13 9 18
359 3 9 24 32 360 15 355 331 0 10 349 2 28 25 24 27 24 39 39 46 47 43 50 53 51 48 42 46 57 63 62 69 76 66 78 66 63 57 72 79 75 68 57 50 37 35 29 22 11 8 2 5 354
22 352 31 36 33 27 21 358 9 11 339 334 2 48 35 43 43 36 31 43 50 48 47 62 64 56 50 47 47 53 56 52 51 49 48 51 44 47 46 48 47 45 44 36 29 31 33 25 15 5 6 10 359 346
348 11 44 4 22 13 42 17 20 338 343 24 49 50 42 44 38 29 45 50 38 29 29 42 53 57 49 41 35 33 26 17 33 46 43 43 50 36 33 24 25 28 33 33 22 21 21 17 8 2 3 1 359 3
8 12 358 355 10 27 351 356 4 13 60 21 6 53 27 48 61 47 46 28 15 18 33 39 48 51 48 44 33 32 28 19 27 33 18 19 28 8 351 3 13 37 30 30 17 10 4 360 356 350 350 356 349 354
21 13 346 352 358 341 349 106 280 28 26 20 33 25 99 89 80 61 53 21 27 40 34 32 33 30 30 26 27 23 14 13 13 21 18 11 7 23 39 32 44 44 29 16 6 1 353 349 348 346 346 339 348 350
335 7 324 294 259 314 14 10 333 19 348 332 88 170 179 128 94 84 52 21 22 21 25 23 23 22 19 13 12 9 10 10 7 6 17 13 13 14 26 53 50 33 17 10 5 1 355 352 349 349 341 354 1 347
342 160 354 356 360 2 359 12 10 355 334 359 9 23 41 335 66 58 25 1 13 21 21 15 6 360 3 4 4 8 7 7 6 1 359 8 36 34 23 13 8 9 9 3 1 358 355 352 350 347 343 339 339 339
332 15 320 305 288 352 357 349 347 45 40 360 353 8 40 53 50 55 17 16 15 4 349 342 353 357 358 2 1 0 3 4 4 355 354 34 40 33 25 14 10 357 358 356 357 356 353 350 345 345 344 344 346 344
334 311 73 356 294 81 145 302 32 17 4 347 7 29 50 51 82 351 344 334 330 330 347 350 357 5 1 357 355 357 0 1 3 1 2 40 36 26 15 4 358 0 354 357 360 354 355 351 354 355 357 352 353 357
337 28 2 46 26 33 39 50 28 26 1 360 64 45 63 122 159 346 357 337 344 341 344 355 356 354 355 356 2 6 10 9 11 13 11 3 360 357 356 357 355 356 354 353 349 2 11 6 357 355 353 351 347 348
359 69 70 304 52 61 50 61 45 43 47 59 85 96 96 98 93 7 333 337 347 353 359 355 356 360 359 360 2 2 11 12 18 18 6 355 351 348 357 357 357 356 355 358 357 355 358 360 358 357 357 355 354 350
3 17 62 65 54 103 85 81 84 79 73 70 71 84 109 125 20 58 14 4 360 360 360 357 0 3 3 3 4 3 2 15 20 11 6 4 357 359 4 2 4 2 1 359 356 357 359 357 357 357 356 355 354 351
359 16 357 81 148 148 134 133 118 165 139 101 118 162 199 169 350 22 5 2 359 359 1 358 360 3 358 358 358 357 358 356 12 12 11 13 13 12 17 5 4 3 1 358 356 357 358 360 360 360 358 357 356 354
16 28 359 5 336 158 152 119 130 210 177 171 20 68 0 56 49 24 344 357 357 353 355 354 352 354 359 358 355 357 355 344 352 1 15 26 26 25 24 9 12 9 6 3 5 6 7 7 5 3 1 358 355 353